Airfield :
LOGIN :

Register | Disclaimer

   EN    FR    IT 

 










Legend :    VFR   Marginal VFR   IFR   Intensive IFR   Very Intensive IFR
Visi :
Ceiling :
>= 8 km
>= 3000ft
5 to 8 km
1000 to 3000 ft
1500m to 5 km
500 to 1000 ft
800 to 1500m
200 to 500 ft
< 800m
< 200 ft
Symbols :   Thunderstorms  Fog  Heavy snow  Heavy precipitations  Wind > 20 kt
SIGMETs :     Misc.  Thunderstorms  Icing  Turbulence  Mountain Waves  Volcanic Ashes







- Airport Elevation : 245 ft


ETHS - Fassberg

CURRENT METAR :
  • 112120Z 32002KT 9999 SCT060 01/00 Q1022 BLU+

EXPIRED METARs :
  • 112020Z 34004KT 9999 FEW020 SCT040 02/01 Q1021 BLU+
  • 111920Z 34007KT 9999 SCT022 BKN035 03/01 Q1021 BLU

TAF AMD TAF ETHS
Valid from the 11 at 15:00 until the 12 at 00:00 UTC


111529Z 1115/1124 34008KT 9999 NSW BKN020 CANCEL 1600
No reported NOTAMs for that airfield.



MET'MAP, your aeronautical weather chart ! - Copyright ORBIFLY December 2007 - Disclaimer

ORBIFLY MET'MAP TEAM :

Programming & Development : Alexandra Zaïnal
Concept & Development : Baudouin d'Aumeries
Co-Development & Prog : Marc-Olivier Méhu
Technical & hardware support : Manuel Goepfert

Contact : metmap@orbifly.com




SOURCES & CREDITS :

   NOAA